#timestamp,LO_Frequency,Hit,StdDev 
1617066015.6,286046996.8,N
1617066035.4,286046999.2,N
1617066055.3,286046999.2,N
1617066075.1,286046999.3,N
1617066076.0,286046999.3,N
1617066095.8,286046997.2,N
1617066115.7,286046998.8,N
1617066135.5,286046999.5,N
1617066155.3,286046998.8,N
1617066175.2,286046999.9,N
1617066195.0,286046999.9,N
1617066195.9,286046999.9,N
1617066215.8,286047002.2,N
1617066235.6,286047002.4,N
1617066255.4,286047000.5,N
1617066275.3,286047001.2,N
1617066295.1,286046998.5,N
1617066315.8,286046999.2,N
1617066335.7,286046995.0,Y
1617066355.5,286046999.3,P
1617066375.4,286047000.7,P
1617066395.2,286047001.0,N
1617066415.0,286046998.4,N
1617066415.9,286046998.4,N
1617066435.8,286046998.6,N
1617066455.6,286047001.0,N
1617066475.5,286047000.2,N
1617066495.3,286047000.3,N
1617066515.1,286047002.4,N
1617066535.9,286047000.3,N
1617066555.7,286047000.2,N
1617066575.5,286047002.8,N
1617066595.4,286047002.5,N
1617066615.2,286047000.7,N
1617066635.0,286047001.0,N
1617066636.0,286047001.0,N
1617066655.8,286046998.8,N
1617066675.6,286046999.4,N
1617066695.5,286046998.8,N
1617066715.3,286046998.3,N
1617066735.1,286046998.1,N
1617066755.9,286046998.8,N
1617066775.7,286046998.4,N
1617066795.5,286046998.8,N
1617066815.4,286046998.5,N
1617066835.2,286046998.1,N
1617066855.1,286046998.8,N
1617066856.0,286046998.8,N
1617066875.8,286046998.5,N
1617066895.6,286046996.6,N
1617066915.5,286046998.6,N
1617066935.3,286046998.2,N
1617066955.1,286047000.4,N
1617066975.9,286046999.1,N
1617066995.7,286046998.9,N
1617067015.6,286047000.2,N
1617067035.4,286046998.6,N
1617067055.2,286046998.2,N
1617067075.1,286046996.5,N
1617067076.0,286046996.5,N
1617067095.8,286046996.7,N
1617067115.6,286046999.0,N
1617067135.5,286047000.0,N
1617067155.3,286047000.9,N
1617067175.2,286047002.8,N
1617067195.9,286047001.0,N
1617067215.7,286046999.9,N
1617067235.6,286047002.7,N
1617067255.4,286046999.8,N
1617067275.2,286047000.4,N
1617067295.1,286047001.1,N
1617067296.0,286047001.1,N
1617067315.8,286047000.9,N
1617067335.7,286046998.9,N
1617067355.5,286047000.7,N
1617067375.3,286047001.0,N
1617067395.2,286047002.4,N
1617067415.0,286047003.6,N
1617067415.9,286047003.6,N
1617067435.7,286047003.2,N
1617067455.6,286047005.2,N
1617067475.4,286047003.0,N
1617067495.3,286047004.4,N
1617067515.1,286047002.1,N
1617067516.0,286047002.1,N
1617067535.8,286047003.6,N
1617067555.7,286047003.6,N
1617067575.5,286047003.4,N
1617067595.3,286047003.7,N
1617067615.2,286047005.8,N
1617067635.0,286047004.5,N
1617067635.9,286047004.5,N
1617067655.8,286047003.1,N
1617067675.6,286047003.4,N
1617067695.4,286047007.6,Y
1617067715.3,286047001.5,P
1617067735.1,286047002.4,P
1617067755.8,286046999.7,N
1617067775.7,286047002.7,N
1617067795.5,286047002.3,N
1617067815.4,286046998.1,N
1617067835.2,286046998.2,N
1617067855.0,286047001.0,N
1617067855.9,286047001.0,N
1617067875.8,286046999.3,N
1617067895.6,286046998.8,N
1617067915.4,286047001.1,N
1617067935.3,286047002.8,N
1617067955.1,286047001.5,N
1617067975.9,286047005.7,Y
1617067995.7,286047003.1,P
1617068015.5,286047004.0,P
1617068035.4,286047003.7,N
1617068055.2,286047003.0,N
1617068075.0,286047007.5,Y
1617068076.0,286047007.5,P
1617068095.8,286047001.4,N
1617068115.6,286047005.6,N
1617068135.5,286047003.0,N
1617068155.3,286047001.3,N
1617068175.1,286047001.5,N
1617068195.9,286047001.6,N
1617068215.7,286047001.8,N
1617068235.5,286047001.5,N
1617068255.4,286047001.4,N
1617068275.2,286047001.8,N
1617068295.1,286047002.5,N
1617068296.0,286047002.5,N
1617068315.8,286047002.6,N
1617068335.6,286047002.6,N
1617068355.5,286047002.1,N
1617068375.3,286047002.4,N
1617068395.1,286047002.0,N
1617068415.9,286047002.3,N
1617068435.7,286047003.5,N
1617068455.6,286047006.0,Y
1617068475.4,286047001.2,P
1617068495.2,286047000.7,N
1617068515.1,286047000.9,N
1617068516.0,286047000.9,N
1617068535.8,286047000.8,N
1617068555.6,286046998.5,N
1617068575.5,286046998.4,N
1617068595.3,286046996.9,N
1617068615.2,286046996.5,N
1617068635.9,286046996.9,N
1617068655.7,286046998.3,N
1617068675.6,286047000.6,N
1617068695.4,286047001.2,N
1617068715.2,286047000.6,N
1617068735.1,286046999.8,N
1617068736.0,286046999.8,N
1617068755.8,286046999.3,N
1617068775.7,286046998.3,N
1617068795.5,286046998.2,N
1617068815.3,286046998.6,N
1617068835.2,286046998.7,N
1617068855.0,286046998.1,N
1617068855.9,286046998.1,N
1617068875.7,286047000.5,N
1617068895.6,286046998.7,N
1617068915.4,286046996.6,N
1617068935.3,286046998.5,N
1617068955.1,286046996.8,N
1617068956.0,286046996.8,N
1617068975.8,286046997.3,N
1617068995.7,286046993.3,Y
1617069015.5,286046993.8,P
1617069035.3,286046995.6,N
1617069055.2,286046996.2,N
1617069075.0,286046995.7,N
1617069075.9,286046995.7,N
1617069095.8,286046991.7,Y
1617069115.6,286046997.6,P
1617069135.4,286046995.0,P
1617069155.3,286046995.1,P
1617069175.1,286046995.0,Y
1617069195.9,286047002.8,P
1617069215.7,286047000.1,N
1617069235.5,286047000.3,N
1617069255.4,286046998.6,N
1617069275.2,286047000.6,N
1617069295.0,286046999.9,N
1617069295.9,286046999.9,N
1617069315.8,286046998.3,N
1617069335.6,286047000.6,N
1617069355.5,286047000.5,N
1617069375.3,286047002.7,N
1617069395.1,286047002.2,N
1617069415.9,286046998.3,N
1617069435.7,286047000.8,N
1617069455.5,286047001.0,N
1617069475.4,286047000.4,N
1617069495.2,286047000.0,N
1617069515.0,286047001.9,N
1617069515.9,286047001.9,N
1617069535.8,286046999.7,N
1617069555.6,286047002.3,N
1617069575.5,286047002.3,N
1617069595.3,286046999.9,N
